#timestamp,LO_Frequency,Hit,StdDev 
1503036015.2,286046998.6,N,0.7
1503036035.9,286046998.9,N,0.8
1503036055.7,286047001.0,N,0.8
1503036075.6,286046998.6,N,0.9
1503036095.4,286046998.3,N,1.0
1503036115.2,286047000.3,N,0.9
1503036135.1,286047000.6,N,0.9
1503036136.0,286047000.6,N,0.9
1503036155.8,286047000.6,N,0.9
1503036175.6,286046998.8,N,0.9
1503036195.5,286046999.1,N,0.9
1503036215.3,286046999.2,N,0.9
1503036235.1,286046997.7,N,1.0
1503036255.9,286046995.0,Y,0.0
1503036275.7,286046997.7,P,1.1
1503036295.5,286046997.3,N,1.1
1503036315.4,286046997.3,N,1.1
1503036335.2,286046997.6,N,1.0
1503036355.0,286046997.7,N,0.9
1503036355.9,286046997.7,N,0.8
1503036375.8,286046997.3,Y,0.0
1503036395.6,286047000.6,P,1.4
1503036415.4,286047001.1,N,1.4
1503036435.3,286046996.6,N,1.9
1503036455.1,286046997.1,N,1.8
1503036475.8,286046996.7,N,1.8
1503036495.7,286046996.9,N,1.8
1503036515.5,286046997.5,N,1.7
1503036535.3,286046994.9,Y,0.0
1503036555.2,286046996.5,P,0.8
1503036575.0,286046998.5,N,0.9
1503036575.9,286046998.5,N,0.8
1503036595.7,286046998.4,N,0.8
1503036615.6,286046999.2,N,0.8
1503036635.4,286046996.7,Y,0.0
1503036655.3,286046998.1,P,0.0
1503036675.1,286046998.2,P,0.0
1503036676.0,286046998.2,P,0.0
1503036695.8,286047001.0,Y,0.0
1503036715.7,286046999.7,P,0.8
1503036735.5,286047000.0,N,0.8
1503036755.3,286047000.6,N,0.9
1503036775.2,286046999.9,N,0.8
1503036795.9,286047000.5,N,0.8
1503036815.7,286047000.8,N,0.8
1503036835.6,286047000.4,N,0.8
1503036855.4,286047000.8,N,0.8
1503036875.2,286046998.1,N,0.9
1503036895.1,286047000.8,N,0.9
1503036896.0,286047000.8,N,0.9
1503036915.8,286047000.7,N,0.9
1503036935.6,286047000.5,N,0.9
1503036955.5,286047001.0,N,0.9
1503036975.3,286047001.0,N,0.9
1503036995.1,286046998.8,N,0.9
1503037015.9,286046998.3,N,1.0
1503037035.7,286046998.5,N,1.0
1503037055.5,286047000.7,N,1.0
1503037075.4,286047000.2,N,1.0
1503037095.2,286046998.6,N,1.0
1503037115.0,286046998.1,N,1.1
1503037115.9,286046998.1,N,1.1
1503037135.8,286046999.3,N,1.1
1503037155.6,286046996.5,Y,0.0
1503037175.4,286046998.4,P,0.7
1503037195.3,286046998.2,N,0.7
1503037215.1,286047001.0,N,1.1
1503037235.8,286047000.9,N,1.2
1503037255.7,286047000.8,N,1.2
1503037275.5,286047001.0,N,1.2
1503037295.3,286047000.9,N,1.1
1503037315.2,286046998.1,N,1.2
1503037335.0,286046998.5,N,1.2
1503037335.9,286046998.5,N,1.2
1503037355.7,286046998.5,N,1.2
1503037375.6,286046999.1,N,1.2
1503037395.4,286046997.0,N,1.3
1503037415.2,286046999.1,N,1.3
1503037435.1,286046999.6,N,1.2
1503037436.0,286046999.6,N,1.2
1503037455.8,286046999.1,N,1.2
1503037475.6,286046998.4,N,1.2
1503037495.5,286046999.1,N,1.1
1503037515.3,286046999.4,N,1.1
1503037535.1,286047001.1,N,1.1
1503037555.9,286046996.6,Y,0.0
1503037575.7,286046996.9,P,1.2
1503037595.6,286046997.0,N,1.1
1503037615.4,286046997.1,N,1.0
1503037635.2,286046999.0,N,1.1
1503037655.1,286046999.0,N,1.1
1503037656.0,286046999.0,N,1.0
1503037675.8,286046999.0,N,1.0
1503037695.6,286046999.2,N,1.0
1503037715.5,286046997.3,N,1.0
1503037735.3,286046997.7,N,1.0
1503037755.1,286046996.7,Y,0.0
1503037775.9,286046998.4,P,0.1
1503037795.7,286046999.3,P,0.5
1503037815.5,286047011.9,P,5.8
1503037835.4,286047000.7,N,5.2
1503037855.2,286047000.8,N,4.7
1503037875.0,286047000.5,N,4.4
1503037875.9,286047000.5,N,4.1
1503037895.8,286046998.1,N,4.0
1503037915.6,286047001.1,N,3.8
1503037935.4,286046998.6,N,3.7
1503037955.3,286046998.8,N,3.6
1503037975.1,286046999.3,N,3.5
1503037995.8,286046999.4,N,3.3
1503038015.7,286046999.3,N,3.2
1503038035.5,286046999.0,N,3.2
1503038055.3,286046999.5,N,3.1
1503038075.2,286046996.9,N,3.1
1503038095.0,286046999.5,N,3.0
1503038095.9,286046999.5,N,2.9
1503038115.7,286046997.0,N,2.9
1503038135.6,286046998.8,N,2.9
1503038155.4,286046998.1,N,2.8
1503038175.2,286046998.2,N,2.8
1503038195.1,286046998.5,N,2.7
1503038196.0,286046998.5,N,2.7
1503038215.8,286046999.9,N,2.6
1503038235.7,286047001.7,N,2.6
1503038255.5,286047001.7,N,2.6
1503038275.3,286047002.2,N,2.6
1503038295.2,286046999.9,N,2.6
1503038315.9,286047002.2,N,2.6
1503038335.7,286047002.1,N,2.6
1503038355.6,286047001.9,N,1.5
1503038375.4,286047002.6,N,1.6
1503038395.2,286047002.7,N,1.6
1503038415.1,286047002.6,N,1.7
1503038416.0,286047002.6,N,1.8
1503038435.8,286047001.8,N,1.8
1503038455.6,286047001.9,N,1.8
1503038475.5,286047003.9,N,1.9
1503038495.3,286047001.4,N,1.9
1503038515.1,286047004.0,N,2.0
1503038535.9,286047004.1,N,2.0
1503038555.7,286047004.2,N,2.1
1503038575.5,286047003.7,N,2.1
1503038595.4,286047003.1,N,2.2
1503038615.2,286047006.0,N,2.2
1503038635.0,286047002.9,N,2.2
1503038635.9,286047002.9,N,2.1
1503038655.8,286047003.6,N,2.0
1503038675.6,286047006.0,Y,0.0
1503038695.4,286047002.2,P,0.1
1503038715.3,286047001.5,P,0.3
1503038735.1,286047004.1,P,1.0
1503038755.8,286047002.0,N,0.9
1503038775.7,286047002.0,N,0.8
1503038795.5,286682707.1,Y,0.0
1503038815.3,286047000.4,P,0.9
1503038835.2,286047002.6,N,1.0
1503038855.0,286046999.7,N,1.2
1503038855.9,286046999.7,N,1.3
1503038875.7,286046999.9,N,1.2
1503038895.6,286047000.5,N,1.1
1503038915.4,286047000.0,N,1.1
1503038935.2,286046999.9,N,1.0
1503038955.1,286047002.8,N,1.2
1503038956.0,286047002.8,N,1.3
1503038975.8,286047000.1,N,1.3
1503038995.6,286047002.4,N,1.3
1503039015.5,286047002.2,N,1.3
1503039035.3,286047002.6,N,1.3
1503039055.1,286047002.4,N,1.3
1503039075.9,286047002.8,N,1.3
1503039095.7,286047002.3,N,1.3
1503039115.5,286047001.6,N,1.2
1503039135.4,286047002.8,N,1.2
1503039155.2,286047001.9,N,1.2
1503039175.0,286047002.7,N,1.2
1503039175.9,286047002.7,N,1.2
1503039195.8,286047002.3,N,1.2
1503039215.6,286047002.6,N,1.2
1503039235.4,286047001.9,N,1.2
1503039255.3,286047001.6,N,1.1
1503039275.1,286047002.1,N,1.1
1503039295.8,286047001.7,N,1.1
1503039315.7,286047001.6,N,1.1
1503039335.5,286047001.4,N,1.1
1503039355.3,286047001.4,N,1.0
1503039375.2,286047001.8,N,1.0
1503039395.0,286047001.9,N,1.0
1503039395.9,286047001.9,N,0.9
1503039415.8,286047002.1,N,0.8
1503039435.6,286047001.7,N,0.8
1503039455.4,286047001.3,N,0.7
1503039475.3,286047001.7,N,0.6
1503039495.1,286047004.3,Y,0.0
1503039496.0,286047004.3,P,1.1
1503039515.8,286046999.9,N,1.8
1503039535.7,286047000.1,N,1.8
1503039555.5,286047002.7,N,1.7
1503039575.3,286046999.8,N,1.7
1503039595.2,286047002.7,N,1.6
